2020-063G (46395 NORAD) Tracking and Keplerian Element Data

This shows tracking and keplerian element data for the satellite.

Feedback or suggestion? Click here.




ElementValue
Catalog46395
Name2020-063G
Epoch Orbit1379
Epoch Day335.69634535
Epoch Year2020
RAAN320.9648
Inclination50.2057
Eccentricity0.0010488
Argument of Perigee315.6978
Mean Anonmoly44.3163
Mean Motion15.79128033
Decay Rate0.00025734
L11 46395U 20063G 20335.69634535 .00025734 00000-0 14355-3 0 9994
L22 46395 50.2057 320.9648 0010488 315.6978 44.3163 15.79128033 13790

Live tracking and technical data element details for 2020-063G (NORAD 46395). 2020-063G can be tracked NOW for your location showing map with azimuth and elevation plus other details from your city location.

Track the satellite on the map from your city or location and see movement details for azimuth, elevation, latitude, longitude, range, height, and movement on the map or in text.







IsCatalogInMostPopularTable: catalog: 46395, numindb: 30
Update: records affected: 1



GetName: 46395 2020-063G

Hit Count: updated at: Tue, 01 Dec 2020 21:43:14 GMT